| time (UTC) | temp F | wind direction | speed MPH | gust MPH | rain 1hr in | rain 24hr in | rain mn in | humidity % | barometer mb |
| 20260505093052 | 50 | 163 | 0.0 | 0.0 | 0.00 | 0.00 | 0.00 | 84 | 1021.0 |
| 20260505091549 | 51 | 163 | 0.0 | 0.0 | 0.00 | 0.00 | 0.00 | 83 | 1021.0 |
| 20260505090053 | 51 | 163 | 0.0 | 0.0 | 0.00 | 0.00 | 0.00 | 82 | 1021.0 |
| 20260505084545 | 52 | 163 | 0.0 | 0.0 | 0.00 | 0.00 | 0.00 | 81 | 1021.0 |
| 20260505083050 | 53 | 163 | 0.0 | 0.0 | 0.00 | 0.00 | 0.00 | 80 | 1021.0 |
| 20260505081546 | 54 | 163 | 0.0 | 0.0 | 0.00 | 0.00 | 0.00 | 79 | 1021.0 |
| 20260505080040 | 55 | 163 | 0.0 | 0.0 | 0.00 | 0.00 | 0.00 | 77 | 1021.0 |
| 20260505074541 | 55 | 163 | 0.0 | 1.0 | 0.00 | 0.00 | 0.00 | 77 | 1021.0 |
| 20260505073034 | 55 | 163 | 0.0 | 2.0 | 0.00 | 0.00 | 0.00 | 76 | 1021.0 |
| 20260505071537 | 56 | 163 | 0.0 | 2.0 | 0.00 | 0.00 | 0.00 | 74 | 1021.0 |
| 20260505070039 | 56 | 205 | 0.0 | 0.0 | 0.00 | 0.00 | 0.00 | 73 | 1021.0 |
| 20260505064550 | 56 | 206 | 0.0 | 1.0 | 0.00 | 0.00 | 0.00 | 73 | 1021.0 |
| 20260505063031 | 56 | 206 | 0.0 | 2.0 | 0.00 | 0.00 | 0.00 | 73 | 1021.0 |
| 20260505061538 | 56 | 206 | 0.0 | 2.0 | 0.00 | 0.00 | 0.00 | 72 | 1021.0 |
| 20260505060032 | 56 | 289 | 0.0 | 0.0 | 0.00 | 0.00 | 0.00 | 73 | 1021.0 |
| 20260505054529 | 56 | 289 | 0.0 | 0.0 | 0.00 | 0.00 | 0.00 | 73 | 1021.0 |
| 20260505053028 | 56 | 289 | 0.0 | 0.0 | 0.00 | 0.00 | 0.00 | 72 | 1021.0 |
| 20260505051527 | 56 | 289 | 0.0 | 0.0 | 0.00 | 0.00 | 0.00 | 72 | 1021.0 |
| 20260505050127 | 56 | 289 | 0.0 | 0.0 | 0.00 | 0.00 | 0.00 | 72 | 1021.0 |
| 20260505041528 | 57 | 289 | 0.0 | 0.0 | 0.00 | 0.00 | 0.00 | 68 | 1021.0 |
| 20260505040016 | 58 | 289 | 0.0 | 0.0 | 0.00 | 0.00 | 0.00 | 66 | 1021.0 |
| 20260505034516 | 59 | 289 | 0.0 | 2.0 | 0.00 | 0.00 | 0.00 | 64 | 1021.0 |
| 20260505033018 | 60 | 289 | 0.0 | 4.0 | 0.00 | 0.00 | 0.00 | 63 | 1021.0 |
| 20260505031514 | 61 | 317 | 0.0 | 5.0 | 0.00 | 0.00 | 0.00 | 61 | 1021.0 |
| 20260505030014 | 61 | 315 | 1.0 | 3.0 | 0.00 | 0.00 | 0.00 | 59 | 1021.0 |
| 20260505024533 | 62 | 277 | 0.0 | 2.0 | 0.00 | 0.00 | 0.00 | 58 | 1021.0 |
| 20260505023013 | 62 | 302 | 1.0 | 4.0 | 0.00 | 0.00 | 0.00 | 58 | 1021.0 |
| 20260505021514 | 62 | 126 | 0.0 | 4.0 | 0.00 | 0.00 | 0.00 | 58 | 1021.0 |
| 20260505020011 | 63 | 187 | 1.0 | 4.0 | 0.00 | 0.00 | 0.00 | 57 | 1021.0 |
| 20260505014512 | 63 | 192 | 1.0 | 3.0 | 0.00 | 0.00 | 0.00 | 55 | 1021.0 |
| 20260505013018 | 64 | 273 | 0.0 | 7.0 | 0.00 | 0.00 | 0.00 | 53 | 1021.0 |
| 20260505011510 | 64 | 205 | 1.0 | 4.0 | 0.00 | 0.00 | 0.00 | 53 | 1021.0 |
| 20260505010010 | 65 | 211 | 1.0 | 6.0 | 0.00 | 0.00 | 0.00 | 51 | 1021.0 |
| 20260505004512 | 65 | 201 | 2.0 | 7.0 | 0.00 | 0.00 | 0.00 | 50 | 1021.0 |
| 20260505003013 | 66 | 200 | 3.0 | 6.0 | 0.00 | 0.00 | 0.00 | 49 | 1021.0 |
| 20260505001509 | 66 | 227 | 1.0 | 6.0 | 0.00 | 0.00 | 0.00 | 48 | 1021.0 |
| 20260505000022 | 67 | 223 | 1.0 | 4.0 | 0.00 | 0.00 | 0.00 | 48 | 1021.0 |
| 20260504234508 | 68 | 252 | 1.0 | 7.0 | 0.00 | 0.00 | 0.00 | 47 | 1021.0 |
| 20260504233010 | 68 | 241 | 2.0 | 9.0 | 0.00 | 0.00 | 0.00 | 46 | 1021.0 |
| 20260504231521 | 69 | 244 | 2.0 | 9.0 | 0.00 | 0.00 | 0.00 | 45 | 1021.0 |
| 20260504230006 | 70 | 84 | 3.0 | 10.0 | 0.00 | 0.00 | 0.00 | 44 | 1021.0 |
| 20260504224506 | 70 | 342 | 1.0 | 14.0 | 0.00 | 0.00 | 0.00 | 45 | 1021.0 |
| 20260504223004 | 71 | 202 | 4.0 | 10.0 | 0.00 | 0.00 | 0.00 | 43 | 1021.0 |
| 20260504221505 | 72 | 143 | 2.0 | 11.0 | 0.00 | 0.00 | 0.00 | 42 | 1021.0 |
| 20260504220007 | 73 | 302 | 6.0 | 12.0 | 0.00 | 0.00 | 0.00 | 43 | 1021.0 |
| 20260504214502 | 74 | 295 | 6.0 | 11.0 | 0.00 | 0.00 | 0.00 | 40 | 1021.0 |
| 20260504213004 | 73 | 284 | 4.0 | 9.0 | 0.00 | 0.00 | 0.00 | 40 | 1021.0 |
| 20260504211559 | 73 | 265 | 5.0 | 11.0 | 0.00 | 0.00 | 0.00 | 44 | 1021.0 |
| 20260504210110 | 73 | 290 | 11.0 | 17.0 | 0.00 | 0.00 | 0.00 | 40 | 1021.0 |
| 20260504204602 | 73 | 294 | 10.0 | 15.0 | 0.00 | 0.00 | 0.00 | 42 | 1021.0 |
| 20260504203054 | 72 | 277 | 6.0 | 13.0 | 0.00 | 0.00 | 0.00 | 42 | 1021.0 |
| 20260504201554 | 72 | 299 | 7.0 | 13.0 | 0.00 | 0.00 | 0.00 | 43 | 1021.0 |
| 20260504200052 | 72 | 296 | 11.0 | 15.0 | 0.00 | 0.00 | 0.00 | 43 | 1021.0 |
| 20260504194605 | 72 | 311 | 8.0 | 15.0 | 0.00 | 0.00 | 0.00 | 44 | 1021.0 |
| 20260504193047 | 72 | 278 | 5.0 | 14.0 | 0.00 | 0.00 | 0.00 | 42 | 1021.0 |
| 20260504191549 | 71 | 295 | 9.0 | 16.0 | 0.00 | 0.00 | 0.00 | 46 | 1021.0 |
| 20260504184551 | 71 | 295 | 9.0 | 16.0 | 0.00 | 0.00 | 0.00 | 46 | 1021.0 |
| 20260504183041 | 70 | 282 | 12.0 | 18.0 | 0.00 | 0.00 | 0.00 | 43 | 1021.0 |
| 20260504181544 | 69 | 275 | 7.0 | 22.0 | 0.00 | 0.00 | 0.00 | 47 | 1021.0 |
| 20260504174536 | 69 | 279 | 5.0 | 17.0 | 0.00 | 0.00 | 0.00 | 46 | 1021.0 |
| 20260504173038 | 69 | 269 | 9.0 | 16.0 | 0.00 | 0.00 | 0.00 | 45 | 1021.0 |
| 20260504171533 | 68 | 302 | 11.0 | 19.0 | 0.00 | 0.00 | 0.00 | 48 | 1021.0 |
| 20260504150115 | 62 | 312 | 6.0 | 13.0 | 0.00 | 0.00 | 0.00 | 48 | 1021.0 |